Tracking 29892 objects as of 21-Nov-2024
HD Live streaming from Space Station
objects crossing your sky now

STARLINK-4002

Track STARLINK-4002 now!
10-day predictions
STARLINK-4002 is classified as:


NORAD ID: 52612
Int'l Code: 2022-052Q
Perigee: 545.6 km
Apogee: 548.2 km
Inclination: 53.2 °
Period: 95.4 minutes
Semi major axis: 6917 km
RCS: Unknown
Launch date: May 14, 2022
Source: United States (US)
Launch site: AIR FORCE EASTERN TEST RANGE (AFETR)
Your satellite tracking list
Your tracking list is empty




NASA's NSSDC Master Catalog

Two Line Element Set (TLE):
1 52612U 22052Q   24324.96473433  .00002099  00000-0  14997-3 0  9994
2 52612  53.2178 250.2433 0001844 114.1595 245.9590 15.08835993139194
Source of the keplerian elements: AFSPC